OSCAR 7 1 07530U 74089B 12036.50843362 -.00000027 +00000-0 +10000-3 0 03017 2 07530 101.3983 038.8663 0011756 182.0472 178.0552 12.53587391703428 OSCAR 11 (UoSAT 2) 1 14781U 84021B 12036.97979323 +.00000146 +00000-0 +26136-4 0 07864 2 14781 097.9744 097.5566 0010101 101.0550 259.1796 14.80299953500370 EGS (AJISAI) 1 16908U 86061A 12036.92653807 -.00000083 +00000-0 +10000-3 0 07801 2 16908 050.0090 075.7991 0011607 150.7225 209.4264 12.44468614827605 TDRS 3 1 19548U 88091B 12035.10764427 -.00000291 00000-0 10000-3 0 8003 2 19548 013.4941 029.7200 0013593 337.2378 116.6721 01.00278446 72796 NAVSTAR 13 (USA 35) 1 19802U 89013A 12036.87959625 .00000034 00000-0 10000-3 0 1548 2 19802 055.0525 272.4684 0043769 116.4268 244.0979 01.85321570161953 TDRS 4 1 19883U 89021B 12035.02846983 +.00000012 +00000-0 +00000-0 0 01940 2 19883 010.7164 035.6176 0012399 205.7397 154.2740 00.98482056256351 NAVSTAR 14 (USA 38) 1 20061U 89044A 12037.29494862 .00000009 00000-0 10000-3 0 8375 2 20061 054.6271 066.7889 0021401 103.0554 257.2600 01.88857120162759 NAVSTAR 15 (USA 42) 1 20185U 89064A 12036.13464154 .00000038 00000-0 10000-3 0 5972 2 20185 054.8159 269.7093 0014396 253.9215 106.0066 01.86085029158581 NAVSTAR 16 (USA 47) 1 20302U 89085A 12036.05905681 -.00000057 00000-0 10000-3 0 7897 2 20302 055.7838 009.7914 0006939 347.2922 012.6932 01.89423153159162 NAVSTAR 17 (USA 49) 1 20361U 89097A 12033.03786897 .00000076 00000-0 10000-3 0 2992 2 20361 053.9735 197.3517 0017179 236.4943 123.3259 01.89174799150045 OSCAR 14 (UOSAT 3) 1 20437U 90005B 12036.94162093 +.00000081 +00000-0 +46358-4 0 07128 2 20437 098.4655 339.6829 0010342 190.6969 169.3990 14.31700019150947 OSCAR 16 (PACSAT) 1 20439U 90005D 12036.96181172 +.00000092 +00000-0 +49960-4 0 04043 2 20439 098.4144 344.1414 0010523 186.8640 173.2396 14.32014434151076 OSCAR 19 (LUSAT) 1 20442U 90005G 12036.93513791 -.00000010 +00000-0 +12034-4 0 03143 2 20442 098.3794 347.5940 0011642 179.1917 180.9283 14.32234989151255 NAVSTAR 18 (USA 50) 1 20452U 90008A 12037.11428720 -.00000058 00000-0 10000-3 0 1550 2 20452 056.2086 317.8175 0011363 216.7201 143.2352 01.89596020156807 JAS 1B (FUJI 2) 1 20480U 90013C 12036.90384916 -.00000005 +00000-0 +54584-4 0 00277 2 20480 099.0633 151.2837 0540654 147.2454 216.3412 12.83375572030526 NAVSTAR 20 (USA 63) 1 20724U 90068A 12036.94967370 .00000057 00000-0 10000-3 0 2635 2 20724 054.2109 259.1785 0044883 252.3546 107.2070 01.87182136151741 FENGYUN 1B 1 20788U 90081A 12036.94040854 +.00000366 +00000-0 +26672-3 0 05075 2 20788 099.0752 069.3341 0016155 180.0605 180.0561 14.02429939096451 NAVSTAR 21 (USA 64) 1 20830U 90088A 12036.89963333 .00000049 00000-0 10000-3 0 2185 2 20830 053.9956 192.7190 0016444 171.8894 188.1000 01.87754476154386 NAVSTAR 22 (USA 66) 1 20959U 90103A 12035.84557719 .00000074 00000-0 10000-3 0 4490 2 20959 054.5795 244.0819 0121037 323.2370 036.0170 02.00553574155216 COSMOS 2123 1 21089U 91007A 12036.77358625 +.00000014 +00000-0 -18891-5 0 00339 2 21089 082.9228 271.4955 0029183 162.2041 198.0140 13.74521195053565 NOAA 12 1 21263U 91032A 12036.94764015 +.00000034 +00000-0 +33341-4 0 03064 2 21263 098.7384 059.1717 0013044 223.1815 136.8343 14.25475931077710 NAVSTAR 23 (USA 71) 1 21552U 91047A 12036.41016697 .00000036 00000-0 10000-3 0 4103 2 21552 054.3314 182.6208 0024405 043.9778 316.1748 01.91859550150736 OSCAR 22 (UoSAT 5) 1 21575U 91050B 12036.89020269 +.00000087 +00000-0 +41780-4 0 03491 2 21575 098.5769 354.4451 0007916 022.9500 337.2041 14.39920078079372 TDRS 5 1 21639U 91054B 12036.49629846 +.00000099 +00000-0 +10000-3 0 00050 2 21639 011.8838 044.0371 0016100 325.3588 136.7480 01.00268331075121 METEOR 3-5 1 21655U 91056A 12036.88853777 +.00000051 +00000-0 +10000-3 0 03315 2 21655 082.5540 245.6466 0012542 295.9917 063.9874 13.17034808984489 NAVSTAR 24 (USA 79) 1 21890U 92009A 12036.34394658 -.00000071 00000-0 10000-3 0 3878 2 21890 055.9323 357.0145 0038041 312.2042 047.4696 01.91829640145606 NAVSTAR 26 (USA 83) 1 22014U 92039A 12036.14163310 -.00000037 00000-0 10000-3 0 2722 2 22014 056.4134 303.8382 0204730 066.9797 295.2140 02.00566392136951 OSCAR 23 (KITSAT 1) 1 22077U 92052B 12036.65995368 -.00000037 00000-0 10000-3 0 2908 2 22077 066.0866 108.7886 0013239 234.6196 125.3586 12.86465386915452 NAVSTAR 27 (USA 84) 1 22108U 92058A 12037.23892217 -.00000066 00000-0 10000-3 0 1915 2 22108 056.2615 356.7381 0221377 294.7348 062.9762 02.00577770142152 NAVSTAR 28 (USA 85) 1 22231U 92079A 12035.84753334 -.00000040 00000-0 10000-3 0 1266 2 22231 056.3136 304.5282 0087849 256.0211 103.0508 02.00558905140706 NAVSTAR 29 (USA 87) 1 22275U 92089A 12036.15661477 -.00000050 00000-0 10000-3 0 9377 2 22275 056.2377 309.2938 0040944 353.6856 006.3065 01.88249367138214 TDRS 6 1 22314U 93003B 12032.29189145 +.00000087 +00000-0 +10000-3 0 00208 2 22314 011.2764 046.9410 0009279 345.5297 032.0726 01.00275218069800 NAVSTAR 30 (USA 88) 1 22446U 93007A 12035.31813994 -.00000003 00000-0 10000-3 0 692 2 22446 054.5599 068.6982 0024242 295.7555 064.0672 01.88092910135369 NAVSTAR 31 (USA 90) 1 22581U 93017A 12037.16146960 -.00000003 00000-0 10000-3 0 8272 2 22581 053.6613 125.7844 0002030 328.9524 031.0604 01.88946973135573 NAVSTAR 32 (USA 91) 1 22657U 93032A 12028.51888371 -.00000021 00000-0 10000-3 0 4390 2 22657 053.8316 114.8551 0091024 298.9203 060.1852 02.00579693133330 NAVSTAR 33 (USA 92) 1 22700U 93042A 12036.27452090 -.00000066 00000-0 10000-3 0 5139 2 22700 056.4050 358.2987 0169553 091.9163 270.0276 02.00568246136291 NAVSTAR 34 (USA 94) 1 22779U 93054A 12037.01010151 -.00000001 00000-0 10000-3 0 1156 2 22779 054.9201 053.2566 0106253 088.3337 272.9186 02.00571108135060 METEOR 2-21 1 22782U 93055A 12036.82580606 +.00000063 +00000-0 +43333-4 0 03320 2 22782 082.5503 137.5320 0023163 160.3736 199.8328 13.83677380930860 KITSAT B 1 22825U 93061C 12036.88134459 +.00000105 +00000-0 +58315-4 0 00287 2 22825 098.5602 341.8537 0008017 313.7528 046.2982 14.29427505957570 POSAT 1 1 22826U 93061D 12036.97738107 +.00000091 +00000-0 +52567-4 0 07888 2 22826 098.5549 342.3548 0008426 307.1150 052.9257 14.29697746957712 ITAMSAT 1 22828U 93061F 12036.88558341 +.00000063 +00000-0 +41241-4 0 09822 2 22828 098.5476 341.9150 0009070 276.1604 083.8541 14.29972871926004 NAVSTAR 35 (USA 96) 1 22877U 93068A 12036.41502887 .00000028 00000-0 10000-3 0 8688 2 22877 053.7361 179.0402 0098350 046.5553 314.2152 02.00549938133947 NAVSTAR 36 (USA 100) 1 23027U 94016A 12037.10738685 -.00000001 00000-0 10000-3 0 8305 2 23027 053.7088 115.7930 0069953 323.4319 036.1376 02.00560053131260 RADIO ROSTO 1 23439U 94085A 12036.78915491 -.00000039 +00000-0 +10000-3 0 04670 2 23439 064.8189 146.4131 0166378 241.1599 117.2534 11.27556687704766 NOAA 14 1 23455U 94089A 12036.92611093 +.00000024 +00000-0 +35822-4 0 07901 2 23455 098.8338 122.0605 0009136 341.0309 019.0518 14.13874666882104 ORBCOMM FM 1 1 23545U 95017A 12036.94093081 +.00001599 +00000-0 +32397-3 0 00326 2 23545 069.9692 009.4870 0011608 282.9309 077.0518 14.63097108894917 ORBCOMM FM 2 1 23546U 95017B 12036.86559821 .00001413 00000-0 29018-3 0 845 2 23546 069.9765 012.4989 0013056 273.2211 086.7443 14.62727389894901 TDRS 7 1 23613U 95035B 12036.79515145 -.00000192 00000-0 10000-3 0 1502 2 23613 012.9030 037.2981 0033040 334.9550 134.2262 01.00274700 60659 NAVSTAR 37 (USA 117) 1 23833U 96019A 12037.12219530 .00000000 00000-0 10000-3 0 287 2 23833 053.3097 111.4530 0147857 066.8517 294.7502 02.00560058116247 NAVSTAR 38 (USA 126) 1 23953U 96041A 12036.98418555 .00000073 00000-0 10000-3 0 5180 2 23953 054.2476 240.2111 0109853 041.6089 319.2688 02.00564296114037 JAS 2 1 24278U 96046B 12036.96248138 -.00000126 +00000-0 -91887-4 0 07717 2 24278 098.5755 154.9817 0350837 011.7977 349.1116 13.52976056764070 NAVSTAR 39 (USA 128) 1 24320U 96056A 12036.12044866 +.00000000 +00000-0 +10000-3 0 02683 2 24320 055.2347 056.8887 0025434 115.8833 244.4445 01.86497707112660 FENGYUN 2A 1 24834U 97029A 12036.09848961 -.00000066 +00000-0 +10000-3 0 07181 2 24834 010.6261 051.6507 0094169 099.1832 261.9802 00.96050666053019 NAVSTAR 43 (USA 132) 1 24876U 97035A 12036.00284165 -.00000038 +00000-0 +10000-3 0 09849 2 24876 056.5532 304.1648 0044791 112.5678 247.9587 02.00557655106549 NAVSTAR 44 (USA 135) 1 25030U 97067A 12037.12832308 -.00000058 00000-0 10000-3 0 9335 2 25030 057.1629 004.4233 0121592 190.6255 169.1191 02.00559308104461 ORBCOMM FM 8 1 25112U 97084A 12036.67265481 +.00000632 +00000-0 +26816-3 0 00279 2 25112 045.0176 136.3237 0010691 217.6547 142.3574 14.35121142738604 ORBCOMM FM 10 1 25113U 97084B 12036.70724397 .00000819 00000-0 33340-3 0 7498 2 25113 045.0187 137.0537 0008168 197.5263 162.5303 14.35111633738603 ORBCOMM FM 11 1 25114U 97084C 12036.69933169 .00000545 00000-0 23822-3 0 6888 2 25114 045.0176 136.6658 0008084 197.8509 162.2033 14.35111762738604 ORBCOMM FM 12 1 25115U 97084D 12036.68244720 .00000331 00000-0 16405-3 0 6844 2 25115 045.0177 136.4944 0007647 199.7638 160.2911 14.35115726738607 ORBCOMM FM 9 1 25116U 97084E 12036.69113957 .00000469 00000-0 21209-3 0 8508 2 25116 045.0175 136.8904 0007394 188.4622 171.6104 14.35099231738605 ORBCOMM FM 5 1 25117U 97084F 12036.72481687 .00000720 00000-0 29898-3 0 7827 2 25117 045.0176 136.9597 0004661 214.3950 145.6606 14.35108898738601 ORBCOMM FM 6 1 25118U 97084G 12036.71685241 .00000924 00000-0 36970-3 0 6698 2 25118 045.0179 136.8675 0004155 220.0126 140.0423 14.35122966738606 ORBCOMM FM 7 1 25119U 97084H 12036.73290342 .00000945 00000-0 37714-3 0 9452 2 25119 045.0174 136.9841 0005576 204.9238 155.1364 14.35116926738601 NOAA 15 1 25338U 98030A 12036.77620957 +.00000251 +00000-0 +12570-3 0 01309 2 25338 098.6790 025.0130 0011257 130.2925 229.9222 14.25027523713999 RESURS O1-N4 1 25394U 98043A 12036.97847038 +.00000026 +00000-0 +28761-4 0 00116 2 25394 098.3103 032.2406 0000640 301.2180 058.8937 14.24272153705587 TMSAT 1 25396U 98043C 12036.94255022 +.00000070 +00000-0 +48375-4 0 02115 2 25396 098.3267 027.8891 0002113 307.5414 052.5578 14.23904163705443 TECHSAT 1B 1 25397U 98043D 12036.59900617 -.00000092 00000-0 -22541-4 0 6964 2 25397 098.3491 021.9333 0001036 358.5509 001.5669 14.23255319705169 ORBCOMM FM 17 1 25413U 98046A 12036.58383688 +.00000440 +00000-0 +23060-3 0 08095 2 25413 044.9967 089.8567 0001483 182.7135 177.3706 14.28155241704377 ORBCOMM FM 18 1 25414U 98046B 12036.55820228 .00000277 00000-0 16140-3 0 8346 2 25414 044.9966 084.8667 0001728 123.7794 236.3231 14.29621890704436 ORBCOMM FM 19 1 25415U 98046C 12036.56753624 .00000489 00000-0 24337-3 0 8761 2 25415 044.9965 085.0391 0000767 083.9791 276.1136 14.29631645704434 ORBCOMM FM 20 1 25416U 98046D 12036.57776868 +.00000723 +00000-0 +33376-3 0 03071 2 25416 044.9968 085.1852 0003411 248.0783 111.9700 14.29620357704391 ORBCOMM FM 16 1 25417U 98046E 12036.58827495 .00000670 00000-0 31345-3 0 9167 2 25417 044.9996 086.2747 0002431 187.2090 172.8730 14.29621338704438 ORBCOMM FM 15 1 25418U 98046F 12036.52891842 .00000590 00000-0 28251-3 0 9599 2 25418 045.0000 086.8087 0002618 164.6756 195.4176 14.29612043704422 ORBCOMM FM 14 1 25419U 98046G 12036.53816721 +.00000374 +00000-0 +19868-3 0 09239 2 25419 044.9999 086.6658 0000787 210.9028 149.1773 14.29617273704421 ORBCOMM FM 13 1 25420U 98046H 12036.54804442 +.00000325 +00000-0 +17977-3 0 08154 2 25420 045.0004 087.0370 0002177 149.6677 210.4305 14.29610317704459 ORBCOMM FM 21 1 25475U 98053A 12036.70506802 +.00000334 +00000-0 +18273-3 0 07912 2 25475 045.0099 169.6776 0002414 059.7089 300.3992 14.29739802697657 ORBCOMM FM 22 1 25476U 98053B 12036.80881476 .00000688 00000-0 31939-3 0 4606 2 25476 045.0093 169.5706 0002364 115.4734 244.6344 14.29764002697656 ORBCOMM FM 23 1 25477U 98053C 12036.79176876 .00000421 00000-0 21650-3 0 7816 2 25477 045.0091 169.3107 0002208 104.7438 255.3663 14.29746366697822 ORBCOMM FM 24 1 25478U 98053D 12036.78238218 +.00000239 +00000-0 +14623-3 0 03708 2 25478 045.0098 169.6737 0001790 150.5766 209.5202 14.29708523697801 ORBCOMM FM 25 1 25479U 98053E 12036.75696942 +.00000577 +00000-0 +27678-3 0 06610 2 25479 045.0089 169.2121 0003869 102.0867 258.0415 14.29757372697797 ORBCOMM FM 26 1 25480U 98053F 12036.76448656 +.00000340 +00000-0 +18451-3 0 07304 2 25480 045.0086 158.2200 0006308 123.5066 236.6383 14.29892099697918 ORBCOMM FM 27 1 25481U 98053G 12036.49454107 +.00000337 +00000-0 +18436-3 0 02521 2 25481 045.0079 170.0961 0001113 146.5502 213.5393 14.29617394697756 ORBCOMM FM 28 1 25482U 98053H 12036.72925341 +.00000497 +00000-0 +24095-3 0 03820 2 25482 045.0107 134.1386 0003834 128.9342 231.1845 14.30751913698239 PAN SAT 1 25520U 98064B 12036.91140997 +.00001905 +00000-0 +78944-4 0 09376 2 25520 028.4600 276.3764 0005039 018.7855 341.2931 15.19132190735226 OSCAR 36 (UOSAT 12) 1 25693U 99021A 12036.97362661 +.00000318 +00000-0 +61687-4 0 07530 2 25693 064.5567 034.3100 0038535 231.1086 128.6591 14.79135251690360 FENGYUN 1C 1 25730U 99025A 12036.88590357 +.00001182 +00000-0 +70345-3 0 05393 2 25730 098.8363 358.2579 0021324 022.3663 337.8430 14.09210842655970 NAVSTAR 46 (USA 145) 1 25933U 99055A 12036.75228789 +.00000006 +00000-0 +10000-3 0 04287 2 25933 050.8808 163.7026 0125863 058.5598 302.6243 02.00562399090378 ORBCOMM FM 30 1 25980U 99065A 12036.80339183 +.00000251 +00000-0 +15114-3 0 02985 2 25980 045.0350 336.1969 0005173 274.7904 085.2340 14.29586490635126 ORBCOMM FM 31 1 25981U 99065B 12036.78875108 .00000489 00000-0 24341-3 0 3947 2 25981 045.0267 333.2717 0004865 284.0322 075.9982 14.29593539635117 ORBCOMM FM 32 1 25982U 99065C 12036.80852524 .00000146 00000-0 11017-3 0 3359 2 25982 045.0236 330.2956 0006891 273.0681 086.9377 14.29795001635155 ORBCOMM FM 33 1 25983U 99065D 12036.96224303 +.00000332 +00000-0 +17523-3 0 03877 2 25983 045.0341 331.2604 0007340 201.7352 158.3172 14.31780389635183 ORBCOMM FM 36 1 25984U 99065E 12036.77552640 +.00000569 +00000-0 +27463-3 0 03455 2 25984 045.0403 338.0858 0001844 175.0428 185.0413 14.29605998635116 ORBCOMM FM 35 1 25985U 99065F 12036.83163405 +.00000290 +00000-0 +16644-3 0 03719 2 25985 045.0438 338.8887 0003748 289.4732 070.5710 14.29591642635127 ORBCOMM FM 34 1 25986U 99065G 12036.81767199 +.00000226 +00000-0 +14154-3 0 03081 2 25986 045.0433 338.3605 0003825 252.5178 107.5260 14.29582160635123 OPAL 1 26063U 00004C 12036.96060594 +.00000100 +00000-0 +54102-4 0 03195 2 26063 100.2171 014.3352 0037107 067.3699 293.1398 14.36046783630261 NAVSTAR 47 (USA 150) 1 26360U 00025A 12036.37114472 .00000074 00000-0 10000-3 0 5154 2 26360 053.3436 236.6099 0049093 072.3897 288.1922 02.00551268 86060 FENGYUN 2B 1 26382U 00032A 12036.19947479 +.00000124 +00000-0 +10000-3 0 04826 2 26382 006.5852 060.7041 0002303 255.7025 104.3816 01.00083287042504 CHAMP (Decayed 2010-09-19) 1 26405U 00039B 10262.28192217 .16926560 -14854-5 22725-3 0 6331 2 26405 087.1842 124.2083 0007115 277.6175 082.5269 16.49173276582753 NAVSTAR 48 (USA 151) 1 26407U 00040A 12036.71675227 .00000008 00000-0 10000-3 0 4663 2 26407 056.0153 061.7264 0180333 254.4330 103.6359 02.00559820 84747 NOAA 16 1 26536U 00055A 12036.80819116 +.00000217 +00000-0 +14177-3 0 06145 2 26536 099.1141 076.7793 0011366 096.9017 263.3444 14.12702552586348 SAUDISAT 1A 1 26545U 00057A 12036.93545781 +.00000735 +00000-0 +11154-3 0 00720 2 26545 064.5558 026.9903 0034163 329.3228 030.5893 14.81355296613903 TIUNGSAT 1 1 26548U 00057D 12036.93779850 +.00000891 +00000-0 +12248-3 0 02505 2 26548 064.5532 336.5676 0034107 316.7138 043.1280 14.84377501614933 SAUDISAT 1B 1 26549U 00057E 12036.50040144 +.00000508 +00000-0 +85055-4 0 01631 2 26549 064.5528 050.3582 0034495 337.6167 022.3431 14.80167714613395 NAVSTAR 49 (USA 154) 1 26605U 00071A 12036.81649107 -.00000031 +00000-0 +10000-3 0 04832 2 26605 056.1474 302.6465 0064131 243.5117 115.8852 02.00553185082348 NAVSTAR 50 (USA 156) 1 26690U 01004A 12036.67602384 +.00000072 +00000-0 +10000-3 0 03566 2 26690 053.3298 239.6813 0129592 234.9580 123.8672 02.00564123080758 PICOSAT 9 1 26930U 01043B 12036.57921282 -.00000000 +00000-0 +32080-4 0 09400 2 26930 067.0011 073.3104 0002839 314.3479 045.7386 14.30172363540493 PCSAT 1 26931U 01043C 12036.62260504 .00000181 00000-0 10239-3 0 9624 2 26931 067.0532 101.9915 0006074 279.9226 080.1191 14.29757786540292 SAPPHIRE 1 26932U 01043D 12036.63499353 -.00000034 00000-0 19023-4 0 9722 2 26932 067.0568 102.2796 0004678 294.1303 065.9330 14.29750494540347 FENGYUN 1D 1 27431U 02024B 12036.92505834 -.00000043 00000-0 -57377-7 0 8605 2 27431 098.7463 007.2580 0014964 201.9153 158.1378 14.09348110500552 NOAA 17 1 27453U 02032A 12036.68226083 +.00000214 +00000-0 +11039-3 0 05872 2 27453 098.3539 070.3251 0011738 180.7351 179.3811 14.24390749499895 MOZHAYETS 1 27560U 02054B 12036.96207815 +.00000307 +00000-0 +79572-4 0 01919 2 27560 097.9420 205.6919 0043762 087.1798 273.4415 14.55505785486916 SAUDISAT 1C 1 27607U 02058C 12036.78509243 +.00000619 +00000-0 +11430-3 0 06824 2 27607 064.5589 337.6099 0085102 274.3885 084.7507 14.72202676490473 NAVSTAR 51 (USA 166) 1 27663U 03005A 12037.04737153 .00000010 00000-0 10000-3 0 7785 2 27663 056.1109 061.3191 0063820 353.3842 006.5973 02.00572397 66115 NAVSTAR 52 (USA 168) 1 27704U 03010A 12036.59913412 +.00000028 +00000-0 +10000-3 0 06777 2 27704 053.3705 179.4158 0186621 229.0458 129.2932 02.00564344064897 NAVSTAR 53 (USA 175) 1 28129U 03058A 12036.72868756 .00000071 00000-0 10000-3 0 2512 2 28129 053.1873 239.8849 0055740 246.7825 112.6272 02.00560692 59600 NAVSTAR 54 (USA 177) 1 28190U 04009A 12037.17122667 -.00000000 00000-0 10000-3 0 2413 2 28190 054.9925 124.0268 0078157 006.6339 353.4983 02.00555722 57784 NAVSTAR 55 (USA 178) 1 28361U 04023A 12036.95984622 -.00000026 00000-0 10000-3 0 574 2 28361 055.0907 299.7728 0075709 188.4754 171.4597 02.00562589 55862 APRIZESAT 2 1 28366U 04025A 12036.82675594 +.00000075 +00000-0 +37918-4 0 01170 2 28366 098.2045 355.0167 0109390 152.3811 208.3255 14.35792663398499 UNISAT 3 1 28373U 04025H 12036.60517213 +.00000380 +00000-0 +12051-3 0 01570 2 28373 098.0837 016.2498 0071595 047.2538 313.4639 14.43732734401121 AMSAT ECHO 1 28375U 04025K 12036.58785287 +.00000159 +00000-0 +60154-4 0 01872 2 28375 098.1282 008.1628 0084614 082.2984 278.7810 14.40891191399673 NAVSTAR 56 (USA 180) 1 28474U 04045A 12036.45358452 .00000027 00000-0 10000-3 0 9449 2 28474 053.7893 178.0611 0109118 196.0060 163.6074 02.00567828 53214 HAMSAT 1 28650U 05017B 12036.72496290 +.00000801 +00000-0 +10503-3 0 00188 2 28650 097.6152 074.0836 0027732 115.0245 245.3880 14.82657116365342 NAVSTAR 57 (USA 183) 1 28874U 05038A 12036.30614308 -.00000008 00000-0 10000-3 0 2077 2 28874 055.1410 121.0038 0072335 226.6102 132.8163 02.00569046 46636 SSETI-EXPRESS 1 28894U 05043E 12036.86918731 .00000214 00000-0 53673-4 0 2963 2 28894 097.9275 267.5126 0016832 207.1025 152.9297 14.60015158334442 MOZ.5/SAFIR/RUBIN 5/SL-8 1 28898U 05043G 12036.66870363 +.00000201 +00000-0 +52186-4 0 01337 2 28898 097.9113 260.5338 0017834 223.2541 136.7255 14.58872152334154 SUITSAT (Decayed 2006-09-07) 1 28933U 05035C 06250.56263144 .13300754 00000-0 18638-3 0 4012 2 28933 051.6150 101.2534 0006572 313.0977 047.0289 16.48585101 34276 CUTE 1.7 (Decayed 2009-10-25) 1 28941U 06005C 09297.68475575 .14491492 29743-5 25760-3 0 5565 2 28941 098.0955 138.9518 0011688 319.8691 040.7485 16.46998778207909 HITSAT (Decayed 2008-06-18) 1 29484U 06041F 08170.27591928 .21901596 31637-5 19690-3 0 4662 2 29484 098.2496 292.5583 0013872 275.6258 084.5236 16.51113477 98738 NAVSTAR 58 (USA 190) 1 29486U 06042A 12035.42108207 -.00000065 00000-0 10000-3 0 5628 2 29486 056.1934 359.9914 0082644 307.1143 052.1301 02.00575996 39313 NAVSTAR 59 (USA 192) 1 29601U 06052A 12037.35935383 .00000009 00000-0 10000-3 0 6218 2 29601 056.0598 060.2717 0038103 352.3309 007.6838 02.00574711 38264 RAFT (Decayed 2007-05-30) 1 29661U 06055C 07150.05824307 .13324117 12618-4 10400-3 0 3000 2 29661 051.6186 176.5045 0007204 190.7749 188.7342 16.52052832 25544 MARSCOM (Decayed 2007-05-06) 1 29662U 06055D 07126.39603970 .07031946 12599-4 11450-3 0 2632 2 29662 051.6121 302.3682 0004459 252.1654 110.7411 16.47981436 21652 ANDE MAA SPHERE 1 (Decayed 2007-12-25) 1 29664U 06055F 07359.16654419 .14620719 12705-4 12723-3 0 7381 2 29664 051.6179 150.0690 0003189 248.8461 111.8136 16.51627846 58777 ANDE FCAL SPHERE 2 (Decayed 2008-05-25) 1 29667U 06055J 08146.34060426 .11864717 12752-4 73624-4 0 9790 2 29667 051.6107 065.3702 0009039 260.8350 099.5042 16.53464210 82911 PEHUENSAT 1 1 29712U 07001D 12036.87644552 +.00003094 +00000-0 +37500-3 0 07893 2 29712 097.7109 079.6014 0013253 014.9907 345.1699 14.84250620274166 NAVSTAR 60 (USA 196) 1 32260U 07047A 12036.18204339 -.00000028 00000-0 00000+0 0 3267 2 32260 054.2511 297.8543 0042677 357.7709 002.2663 02.00553987 31636 NAVSTAR 61 (USA 199) 1 32384U 07062A 12036.49332088 -.00000006 00000-0 10000-3 0 3629 2 32384 055.1679 121.4838 0024169 289.9977 069.7765 02.00566452 30367 NAVSTAR 62 (USA 201) 1 32711U 08012A 12036.58550348 -.00000065 +00000-0 +10000-3 0 01397 2 32711 055.9015 359.8095 0051287 190.8509 169.0395 02.00569771028577 DELFI C3 1 32789U 08021G 12036.91490083 +.00002318 +00000-0 +27820-3 0 02232 2 32789 097.8309 103.0014 0015997 129.3770 230.8846 14.84885946204246 YUBILEINY 1 32953U 08025A 12037.45002424 .00000010 00000-0 00000+0 0 4974 2 32953 082.5023 017.0526 0017450 234.3800 125.5658 12.43020656168198 PRISM (HITOMI) 1 33493U 09002B 12036.92786366 +.00002026 +00000-0 +25459-3 0 03972 2 33493 098.1489 174.5730 0019203 009.0953 351.0589 14.83155765164143 STARS (KUKAI) 1 33498U 09002G 12036.91330644 +.00001109 +00000-0 +18227-3 0 06395 2 33498 098.0979 153.4581 0013577 130.3475 229.8909 14.72530464163054 KKS-1 (KISEKI) 1 33499U 09002H 12036.84600623 .00000581 00000-0 10165-3 0 6515 2 33499 098.0997 152.2948 0010933 130.7046 229.5092 14.71505954162964 ANDE CASTOR SPHERE (Decayed 2010-08-18) 1 35694U 09038F 10230.44082147 .07179566 12689-4 99310-4 0 6559 2 35694 051.5930 222.0149 0004218 308.0851 053.0105 16.48877011 61107 SUMBANDILA 1 35870U 09049F 12036.94492700 +.00003279 +00000-0 +14352-3 0 06550 2 35870 097.2514 077.3274 0000667 322.8178 130.6003 15.22715723132489 XIWANG-1 (HOPE-1) 1 36122U 09072B 12037.19049335 -.00000044 00000-0 00000+0 0 1742 2 36122 100.3809 099.1084 0007704 052.5136 307.6685 13.16293035103022 RADIOSCAF-B (KEDR) (Decayed 2012-01-04) 1 37772U 98067CK 12004.04884568 .13494171 12416-4 77857-3 0 4794 2 37772 051.6129 213.1240 0007478 255.9283 104.1611 16.41716225 24077